DW7229 Weather Reports


time (UTC)temp
F
wind
direction
speed
knots
gust
knots
rain 1hr
in
rain 24hr
in
rain mn
in
humidity
%
barometer
mb
20260902031047 62 0.0 0.0 9.90 9.90 9.90 94 1019.1
20260902030030 63 0.0 0.0 9.90 9.90 9.90 94 1019.2
20260902025015 63 0.0 0.0 9.90 9.90 9.90 94 1019.1
20260902024018 63 0.0 0.0 9.90 9.90 9.90 94 1019.2
20260902023022 63 0.0 0.0 9.90 9.90 9.90 94 1019.2
20260902022019 63 0.0 0.0 9.90 9.90 9.90 94 1019.1
20260902021016 63 0.0 0.0 0.00 0.00 0.00 94 1019.3
20260902020032 63 0.0 0.0 0.00 0.00 0.00 94 1019.3
20260902015017 63 0.0 0.0 0.00 0.00 0.00 93 1019.2
20260902014101 63 0.0 0.0 0.00 0.00 0.00 92 1019.3
20260902013024 63 0.0 0.0 0.00 0.00 0.00 91 1019.2
20260902012047 63 0.0 0.0 0.00 0.00 0.00 91 1019.1
20260902011030 63 0.0 0.0 0.00 0.00 0.00 91 1019.1
20260902010035 63 0.0 0.0 0.00 0.00 0.00 91 1019.1
20260902005019 64 0.0 0.0 0.00 0.00 0.00 91 1018.9
20260902004022 64 0.0 0.0 0.00 0.00 0.00 89 1018.8
20260902003026 64 0.0 0.0 0.00 0.00 0.00 89 1018.7
20260902002029 64 0.0 0.0 0.00 0.00 0.00 89 1018.6
20260902001032 64 0.0 0.0 0.00 0.00 0.00 88 1018.4
20260902000018 64 0.0 0.0 0.00 0.00 0.00 88 1018.4
20260901235021 64 0.0 0.0 0.00 0.00 0.00 88 1018.5
20260901234024 64 0.0 0.0 0.00 0.00 0.00 88 1018.6
20260901233027 64 0.0 0.0 0.00 0.00 0.00 88 1018.6
20260901232051 64 0.0 0.0 0.00 0.00 0.00 88 1018.6
20260901231016 64 0.0 0.0 0.00 0.00 0.00 88 1018.6
20260901230019 65 0.0 0.0 0.00 0.00 0.00 88 1018.7
20260901225023 65 0.0 0.0 0.00 0.00 0.00 88 1018.4
20260901224020 65 0.0 0.0 0.00 0.00 0.00 88 1018.4
20260901223017 65 0.0 0.0 0.00 0.00 0.00 88 1018.3
20260901222033 65 0.0 0.0 0.00 0.00 0.00 88 1018.2
20260901221018 65 0.0 0.0 0.00 0.00 0.00 87 1018.4
20260901220021 65 0.0 0.0 0.00 0.00 0.00 87 1018.3
20260901215024 65 0.0 0.0 0.00 0.00 0.00 87 1018.3
20260901214028 66 0.0 0.0 0.00 0.00 0.00 87 1018.1
20260901213051 66 0.0 0.0 0.00 0.00 0.00 87 1018.1
20260901212016 66 0.0 0.0 0.00 0.00 0.00 87 1018.1
20260901211100 66 0.0 0.0 0.00 0.00 0.00 87 1017.9
20260901210043 67 0.0 0.0 0.00 0.00 0.00 87 1017.9
20260901205026 67 0.0 0.0 0.00 0.00 0.00 87 1017.7
20260901204029 67 0.0 0.0 0.00 0.00 0.00 87 1017.6
20260901203015 67 0.0 0.0 0.00 0.00 0.00 87 1017.6
20260901202018 67 0.0 0.0 0.00 0.00 0.00 87 1017.6
20260901201021 67 0.0 0.0 0.00 0.00 0.00 88 1017.6
20260901200044 67 0.0 0.0 0.00 0.00 0.00 88 1017.5
20260901195028 67 0.0 0.0 0.00 0.00 0.00 88 1017.7
20260901194031 67 0.0 0.0 0.00 0.00 0.00 88 1017.8
20260901193016 67 0.0 0.0 0.00 0.00 0.00 91 1017.8
20260901192020 65 0.0 0.0 0.00 0.00 0.00 94 1017.8
20260901191023 66 0.0 0.0 0.00 0.00 0.00 94 1017.7
20260901190020 66 0.0 0.0 0.00 0.00 0.00 94 1017.8
20260901185018 65 0.0 0.0 0.00 0.00 0.00 94 1017.9
20260901184015 65 0.0 0.0 0.00 0.00 0.00 94 1017.9
20260901183039 65 0.0 0.0 0.00 0.00 0.00 94 1017.8
20260901182022 65 0.0 0.0 0.00 0.00 0.00 94 1017.7
20260901181025 65 0.0 0.0 0.00 0.00 0.00 93 1017.5
20260901180028 65 0.0 0.0 0.00 0.00 0.00 93 1017.5
20260901175031 65 270 0.0 0.9 0.00 0.00 0.00 93 1017.2
20260901174037 65 0.0 0.0 0.00 0.00 0.00 90 1017.5
20260901173020 65 0.0 0.0 0.00 0.00 0.00 90 1017.6
20260901172023 65 0.0 0.0 0.00 0.00 0.00 90 1017.5
20260901171026 65 0.0 0.0 0.00 0.00 0.00 91 1017.7
20260901170029 65 0.0 0.0 0.00 0.00 0.00 92 1017.6
20260901165015 65 0.0 0.0 0.00 0.00 0.00 95 1017.8
20260901164038 64 0.0 0.0 0.00 0.00 0.00 95 1018.0
20260901163042 64 0.0 0.0 0.00 0.00 0.00 95 1018.0
20260901162025 64 0.0 0.0 0.00 0.00 0.00 91 1018.0
20260901161028 63 0.0 0.0 0.00 0.00 0.00 91 1017.8
20260901160032 64 0.0 0.0 0.00 0.00 0.00 91 1017.8
20260901155057 63 0.0 0.0 0.00 0.00 0.00 91 1017.6
20260901154020 63 0.0 0.0 0.00 0.00 0.00 89 1017.5
20260901153023 62 0.0 0.0 0.00 0.00 0.00 89 1017.6
20260901152021 63 0.0 0.9 0.00 0.00 0.00 89 1017.9
20260901151018 63 0.0 0.0 0.00 0.00 0.00 89 1017.6
20260901150015 62 0.0 0.0 0.00 0.00 0.00 89 1017.5
20260901145038 62 0.0 0.0 0.00 0.00 0.00 89 1017.7
20260901144021 62 0.0 0.0 0.00 0.00 0.00 88 1017.6
20260901143025 62 225 0.0 1.7 0.00 0.00 0.00 88 1017.5
20260901142028 62 0.0 0.0 0.00 0.00 0.00 86 1017.4
20260901141032 61 0.0 0.0 0.00 0.00 0.00 86 1017.5
20260901140037 61 0.0 0.0 0.00 0.00 0.00 86 1017.6
20260901135020 61 0.0 0.0 0.00 0.00 0.00 86 1017.8
20260901134024 60 0.0 0.0 0.00 0.00 0.00 85 1017.8
20260901133027 60 0.0 0.0 0.00 0.00 0.00 85 1018.0
20260901132030 60 0.0 0.0 0.00 0.00 0.00 84 1018.2
20260901131015 61 0.0 0.0 0.00 0.00 0.00 83 1018.3
20260901130058 61 0.0 0.0 0.00 0.00 0.00 83 1018.4
20260901125022 61 0.0 0.0 0.00 0.00 0.00 81 1018.4
20260901124025 61 0.0 0.0 0.00 0.00 0.00 81 1018.5
20260901123028 62 0.0 0.0 0.00 0.00 0.00 80 1018.5
20260901122032 62 0.0 0.0 0.00 0.00 0.00 79 1018.3
20260901121017 62 0.0 0.0 0.00 0.00 0.00 77 1018.1
20260901120020 63 0.0 0.0 0.00 0.00 0.00 77 1017.9
20260901115023 63 0.0 0.0 0.00 0.00 0.00 77 1018.0
20260901114021 63 0.0 0.0 0.00 0.00 0.00 77 1017.9
20260901113018 63 0.0 0.0 0.00 0.00 0.00 77 1017.7
20260901112015 63 0.0 0.0 0.00 0.00 0.00 77 1017.6
20260901111019 63 0.0 0.0 0.00 0.00 0.00 77 1017.7
20260901110022 63 0.0 0.0 0.00 0.00 0.00 77 1017.6
20260901105045 64 0.0 0.0 0.00 0.00 0.00 78 1017.4
20260901104028 64 0.0 0.0 0.00 0.00 0.00 78 1017.4
20260901103052 64 0.0 0.0 0.00 0.00 0.00 79 1017.3
20260901102037 64 0.0 0.0 0.00 0.00 0.00 79 1017.1
20260901101040 64 0.0 0.0 0.00 0.00 0.00 79 1017.0
20260901100023 64 0.0 0.0 0.00 0.00 0.00 79 1016.7
20260901095027 64 0.0 0.0 0.00 0.00 0.00 79 1016.7
20260901094030 64 0.0 0.0 0.00 0.00 0.00 79 1016.7
20260901093015 64 0.0 0.0 0.00 0.00 0.00 79 1016.7
20260901092119 64 0.0 0.0 0.00 0.00 0.00 79 1016.8
20260901091022 64 0.0 0.0 0.00 0.00 0.00 79 1016.9
20260901090025 64 0.0 0.0 0.00 0.00 0.00 79 1016.8
20260901085049 64 0.0 0.0 0.00 0.00 0.00 79 1016.7
20260901084032 64 0.0 0.0 0.00 0.00 0.00 79 1016.6
20260901083017 64 0.0 0.0 0.00 0.00 0.00 79 1016.7
20260901082020 64 0.0 0.0 0.00 0.00 0.00 79 1016.8
20260901081044 64 0.0 0.0 0.00 0.00 0.00 79 1016.8
20260901080021 64 0.0 0.0 0.00 0.00 0.00 79 1017.0
20260901075038 64 0.0 0.0 0.00 0.00 0.00 79 1017.1
20260901074016 64 0.0 0.0 0.00 0.00 0.00 79 1017.1
20260901073019 64 0.0 0.0 0.00 0.00 0.00 79 1017.0
20260901072022 64 0.0 0.0 0.00 0.00 0.00 79 1017.0
20260901071026 64 0.0 0.0 0.00 0.00 0.00 79 1017.2
20260901070029 64 0.0 0.0 0.00 0.00 0.00 79 1017.3
20260901065032 63 0.0 0.0 0.00 0.00 0.00 79 1017.4
20260901064017 63 0.0 0.0 0.00 0.00 0.00 79 1017.3
20260901063020 63 0.0 0.0 0.00 0.00 0.00 79 1017.4
20260901062104 63 0.0 0.0 0.00 0.00 0.00 79 1017.5
20260901061027 62 0.0 0.0 0.00 0.00 0.00 79 1017.5
20260901060030 62 0.0 0.0 0.00 0.00 0.00 79 1017.5
20260901055016 62 0.0 0.0 0.00 0.00 0.00 79 1017.5
20260901054019 62 0.0 0.0 0.00 0.00 0.00 79 1017.7
20260901053022 62 0.0 0.0 0.00 0.00 0.00 79 1017.6
20260901052026 61 0.0 0.0 0.00 0.00 0.00 78 1017.5
20260901051029 61 0.0 0.0 0.00 0.00 0.00 78 1017.4
20260901050052 61 0.0 0.0 0.00 0.00 0.00 78 1017.6
20260901045018 61 0.0 0.0 0.00 0.00 0.00 77 1017.6
20260901044022 62 0.0 0.0 0.00 0.00 0.00 76 1017.7
20260901043024 62 0.0 0.0 0.00 0.00 0.00 76 1017.7
20260901042021 62 0.0 0.0 0.00 0.00 0.00 76 1017.7
20260901041019 62 0.0 0.0 0.00 0.00 0.00 76 1017.7
20260901040036 62 0.0 0.0 0.00 0.00 0.00 76 1017.5
20260901035019 62 0.0 0.0 0.00 0.00 0.00 75 1017.8
20260901034022 62 0.0 0.0 0.00 0.00 0.00 75 1017.7
20260901033026 62 0.0 0.0 0.00 0.00 0.00 75 1017.8
20260901032029 62 0.0 0.0 0.00 0.00 0.00 74 1017.8